QIANFAN-42 (62243 NORAD) Tracking and Keplerian Element Data

This shows tracking and keplerian element data for the satellite.

Feedback or suggestion? Click here.




ElementValue
Catalog62243
NameQIANFAN-42
Epoch Orbit5696
Epoch Day34.77440629
Epoch Year2025
RAAN73.1639
Inclination88.9887
Eccentricity0.0015969
Argument of Perigee32.9533
Mean Anonmoly327.2651
Mean Motion14.24170069
Decay Rate4.93E-06
L11 62243U 24232G 25034.77440629 .00000493 00000+0 20743-3 0 9997
L22 62243 88.9887 73.1639 0015969 32.9533 327.2651 14.24170069 56967



Live tracking and technical data element details for QIANFAN-42 (NORAD 62243). QIANFAN-42 can be tracked NOW for your location showing map with azimuth and elevation plus other details from your city location.







IsCatalogInMostPopularTable: catalog: 62243, numindb: 9
Update: records affected: 1



GetName: 62243 QIANFAN-42

Hit Count: updated at: Sat, 24 May 2025 15:51:09 GMT